Showing default

COSMOS 2277 (GLONASS), 23044

Orbit data source: Space-Track

COSMOS 2277 (GLONASS), 23044 is a payload satellite owned by VKS (CIS) in MEO that was launched on Mon, 11 Apr 1994 UTC via a PROTON-K/DM-2 launch vehicle from the Tyuratam Missile And Space Complex (TTMTR). Payload-class satellites include a variety of spacecraft equipped with specific instruments for various scientific and technological missions. These include communications satellites like Starlink; space stations such as the ISS; scientific satellites like the Hubble; Earth observation satellites from companies like Planet Labs, Umbra, and HawkEye 360; GPS; miniature CubeSats for education and research; and military/defense satellites.

Loading next visibility...
Identifier
23044, 1994-021B
Orbit
MEO
Country
Flag of CISCIS
Related business
Manufacturer
Polyot
Mission
Non-operational Defense Navigation
Bus & Motor
URAGAN, Unknown motor
Mass
1,300 kg wet, ~1,200 kg dry
Launch date (UTC)
1994-04-11 (32 years ago)
Launch vehicle
PROTON-K/DM-2
Launch site
Tyuratam Missile And Space Complex (TTMTR)
Object type
Payload
Rocket body
Debris
Shape & HBR
Cyl + 2 Pan, 4.2 m
Radar Cross Section
14.707 m², Large (>1 m²)

Expand to show TLE details & history
Last TLE update: 4 days ago

TLE from 4 days ago
0 COSMOS 2277 (GLONASS)
1 23044U 94021B   26170.42079125 -.00000055  00000-0  00000-0 0  9996
2 23044  63.9794 300.5744 0058797 209.2407 134.5384  2.13104407250452
Epoch: 2026-06-19T10:05Z
TLE epoch observation values (Epoch: 2026-06-19T10:05:56.363Z)
Latitude
-14.13532°
Longitude
-125.62185°
Altitude
19,238.957 km
Speed
3.936 km/s
True Right ascension
19h 34m 03s
True Declination
-14° 06' 46"
Sunlit
Object was in daylight at epoch
Visualization orbit readout
Latitude
Unknown
Longitude
Unknown
Altitude
Unknown
Speed
Unknown
Apparent Right ascension
Unknown
Apparent Declination
Unknown
Sunlit
N/A
Visualization observer readout
Local Sidereal Time
13:41:04
Azimuth
Unknown
Elevation
Unknown
Doppler factor
Unknown
Orbital elements
Apogee altitude
19,279.322 km
Perigee altitude
18,979.37 km
Semi-major axis
25,507.483 km
Eccentricity
0.00588
Inclination
63.9794°
RAAN
300.5744°
Arg. of periapsis
209.2407°
True anomaly
135.01618°
Mean anomaly
134.5384°
Eccentric anomaly
134.77753°
Mean motion
0.53277 °/min
Orbital period
675.71 mins
BSTAR
0
Loading maneuver chart data...
Computing Atmospheric mass density...
Loading historical data...
Loading historical data...
Loading historical data...
Loading historical data...
Loading historical data...
Loading historical data...
Loading historical data...

Documentation

Showing up to 5 results
|